• In Romania
  • List of Countries
  • For 7 days
  • Water Temperature
  • Satellite Maps
  • Weather Map
  • Weather Widgets
  • user-avatar
    Login

    Hourly Weather Buar

    Today, 21 June, Thursday

    Time Temperature Precipitation Wind Pressure Humidity
    00:00 +20°C° 0.4 mm 1 mps 697 mmHg 97%
    01:00 +20°C° 0 mm 1 mps 697 mmHg 97%
    02:00 +20°C° 0 mm 1 mps 697 mmHg 97%
    03:00 +20°C° 0 mm 1 mps 697 mmHg 97%
    04:00 +20°C° 0 mm 1 mps 697 mmHg 97%
    05:00 +20°C° 0 mm 1 mps 697 mmHg 97%
    06:00 +20°C° 0 mm 1 mps 697 mmHg 96%
    07:00 +21°C° 0 mm 1 mps 697 mmHg 95%
    08:00 +24°C° 0 mm 1 mps 698 mmHg 84%
    09:00 +26°C° 0 mm 1 mps 698 mmHg 73%
    10:00 +28°C° 0 mm 2 mps 699 mmHg 62%
    11:00 +29°C° 0.4 mm 2 mps 698 mmHg 61%
    12:00 +29°C° 0.4 mm 2 mps 698 mmHg 60%
    13:00 +30°C° 0 mm 2 mps 697 mmHg 58%
    14:00 +30°C° 0.7 mm 1 mps 697 mmHg 61%
    15:00 +29°C° 0.7 mm 1 mps 697 mmHg 63%
    16:00 +29°C° 0.7 mm 1 mps 697 mmHg 65%
    17:00 +27°C° 0.4 mm 1 mps 697 mmHg 72%
    18:00 +25°C° 0.4 mm 1 mps 697 mmHg 79%
    19:00 +23°C° 0.4 mm 1 mps 697 mmHg 85%
    20:00 +22°C° 0 mm 1 mps 697 mmHg 87%
    21:00 +22°C° 0 mm 1 mps 697 mmHg 89%
    22:00 +21°C° 0 mm 1 mps 697 mmHg 90%
    23:00 +21°C° 0 mm 1 mps 697 mmHg 91%

    Tomorrow, 22 June, Friday

    Time Temperature Precipitation Wind Pressure Humidity
    00:00 +21°C° 0 mm 1 mps 697 mmHg 91%
    01:00 +20°C° 0 mm 1 mps 696 mmHg 92%
    02:00 +20°C° 0 mm 1 mps 696 mmHg 92%
    03:00 +20°C° 0 mm 1 mps 696 mmHg 93%
    04:00 +20°C° 0 mm 1 mps 696 mmHg 93%
    05:00 +20°C° 0 mm 1 mps 696 mmHg 91%
    06:00 +21°C° 0 mm 1 mps 697 mmHg 89%
    07:00 +21°C° 0 mm 1 mps 697 mmHg 87%
    08:00 +24°C° 0 mm 1 mps 698 mmHg 76%
    09:00 +27°C° 0 mm 1 mps 698 mmHg 66%
    10:00 +30°C° 0 mm 2 mps 699 mmHg 56%
    11:00 +30°C° 0.1 mm 2 mps 698 mmHg 54%
    12:00 +31°C° 0.1 mm 2 mps 698 mmHg 51%
    13:00 +32°C° 0.1 mm 2 mps 697 mmHg 49%
    14:00 +31°C° 0.3 mm 2 mps 697 mmHg 55%
    15:00 +30°C° 0.3 mm 2 mps 696 mmHg 60%
    16:00 +29°C° 0.3 mm 1 mps 695 mmHg 66%
    17:00 +27°C° 0.4 mm 1 mps 695 mmHg 74%
    18:00 +25°C° 0.4 mm 1 mps 695 mmHg 82%
    19:00 +23°C° 0.4 mm 1 mps 695 mmHg 90%
    20:00 +23°C° 0.4 mm 1 mps 696 mmHg 91%
    21:00 +22°C° 0.4 mm 1 mps 696 mmHg 92%
    22:00 +22°C° 0.4 mm 1 mps 697 mmHg 93%
    23:00 +22°C° 0 mm 1 mps 697 mmHg 93%

    Day after tomorrow, 23 June, Saturday

    Time Temperature Precipitation Wind Pressure Humidity
    00:00 +21°C° 0 mm 1 mps 696 mmHg 94%
    01:00 +21°C° 0 mm 1 mps 696 mmHg 94%
    02:00 +21°C° 0.4 mm 1 mps 696 mmHg 94%
    03:00 +21°C° 0.4 mm 1 mps 696 mmHg 95%
    04:00 +21°C° 0.4 mm 1 mps 696 mmHg 95%
    05:00 +21°C° 0.4 mm 1 mps 696 mmHg 95%
    06:00 +21°C° 0.4 mm 1 mps 697 mmHg 95%
    07:00 +21°C° 0.4 mm 1 mps 697 mmHg 95%
    08:00 +22°C° 0.6 mm 1 mps 697 mmHg 94%
    09:00 +23°C° 0.6 mm 1 mps 698 mmHg 92%
    10:00 +24°C° 0.6 mm 1 mps 698 mmHg 91%
    11:00 +24°C° 1 mm 1 mps 698 mmHg 89%
    12:00 +25°C° 1 mm 2 mps 697 mmHg 86%
    13:00 +26°C° 1 mm 2 mps 696 mmHg 83%
    14:00 +26°C° 1.3 mm 1 mps 696 mmHg 83%
    15:00 +26°C° 1.3 mm 1 mps 695 mmHg 82%
    16:00 +26°C° 1.3 mm 1 mps 695 mmHg 82%
    17:00 +25°C° 0.7 mm 1 mps 695 mmHg 86%
    18:00 +23°C° 0.7 mm 1 mps 695 mmHg 90%
    19:00 +22°C° 0.7 mm 1 mps 696 mmHg 93%
    20:00 +22°C° 0.1 mm 1 mps 696 mmHg 94%
    21:00 +21°C° 0.1 mm 1 mps 696 mmHg 95%
    22:00 +21°C° 0.1 mm 1 mps 697 mmHg 96%
    23:00 +21°C° 0 mm 1 mps 696 mmHg 97%

    24 June, Sunday

    Time Temperature Precipitation Wind Pressure Humidity
    00:00 +20°C° 0 mm 1 mps 696 mmHg 97%
    01:00 +20°C° 0 mm 1 mps 696 mmHg 98%
    02:00 +20°C° 0 mm 1 mps 695 mmHg 98%
    03:00 +20°C° 0 mm 1 mps 695 mmHg 98%
    04:00 +19°C° 0 mm 1 mps 695 mmHg 98%
    05:00 +20°C° 0 mm 1 mps 696 mmHg 97%
    06:00 +20°C° 0 mm 1 mps 696 mmHg 97%
    07:00 +21°C° 0 mm 1 mps 696 mmHg 96%
    08:00 +23°C° 0 mm 1 mps 697 mmHg 85%
    09:00 +26°C° 0 mm 2 mps 698 mmHg 73%
    10:00 +28°C° 0 mm 2 mps 698 mmHg 62%
    11:00 +29°C° 0.3 mm 1 mps 698 mmHg 61%
    12:00 +30°C° 0.3 mm 1 mps 697 mmHg 59%
    13:00 +31°C° 0.3 mm 1 mps 697 mmHg 58%
    14:00 +30°C° 0.6 mm 1 mps 696 mmHg 61%
    15:00 +29°C° 0.6 mm 1 mps 695 mmHg 65%
    16:00 +29°C° 0.6 mm 1 mps 694 mmHg 69%
    17:00 +27°C° 0.4 mm 1 mps 695 mmHg 75%
    18:00 +25°C° 0.4 mm 1 mps 695 mmHg 82%
    19:00 +23°C° 0.4 mm 1 mps 695 mmHg 89%
    20:00 +22°C° 0.4 mm 1 mps 695 mmHg 90%
    21:00 +21°C° 0.4 mm 1 mps 695 mmHg 92%
    22:00 +21°C° 0.4 mm 1 mps 696 mmHg 93%
    23:00 +21°C° 0 mm 1 mps 695 mmHg 93%

    25 June, Monday

    Time Temperature Precipitation Wind Pressure Humidity
    00:00 +20°C° 0 mm 1 mps 695 mmHg 93%
    01:00 +20°C° 0 mm 1 mps 694 mmHg 93%
    02:00 +20°C° 0 mm 1 mps 694 mmHg 93%
    03:00 +20°C° 0 mm 1 mps 694 mmHg 93%
    04:00 +19°C° 0 mm 1 mps 694 mmHg 94%
    05:00 +20°C° 0 mm 1 mps 695 mmHg 92%
    06:00 +20°C° 0 mm 1 mps 695 mmHg 91%
    07:00 +21°C° 0 mm 1 mps 696 mmHg 90%
    08:00 +24°C° 0 mm 1 mps 697 mmHg 79%
    09:00 +27°C° 0 mm 2 mps 697 mmHg 67%
    10:00 +29°C° 0 mm 2 mps 698 mmHg 56%
    11:00 +31°C° 0.2 mm 1 mps 697 mmHg 53%
    12:00 +32°C° 0.2 mm 1 mps 697 mmHg 50%
    13:00 +34°C° 0.2 mm 1 mps 696 mmHg 48%
    14:00 +33°C° 0.1 mm 1 mps 696 mmHg 50%
    15:00 +32°C° 0.1 mm 1 mps 695 mmHg 52%
    16:00 +31°C° 0.1 mm 1 mps 694 mmHg 54%
    17:00 +29°C° 0.1 mm 1 mps 694 mmHg 62%
    18:00 +27°C° 0.1 mm 1 mps 694 mmHg 70%
    19:00 +25°C° 0.1 mm 1 mps 695 mmHg 78%
    20:00 +24°C° 0.1 mm 1 mps 695 mmHg 82%
    21:00 +23°C° 0.1 mm 1 mps 695 mmHg 86%
    22:00 +22°C° 0.1 mm 1 mps 695 mmHg 91%
    23:00 +22°C° 0.3 mm 1 mps 695 mmHg 92%

    26 June, Tuesday

    Time Temperature Precipitation Wind Pressure Humidity
    00:00 +21°C° 0.3 mm 1 mps 694 mmHg 93%
    01:00 +21°C° 0.3 mm 1 mps 694 mmHg 95%
    02:00 +21°C° 0.4 mm 1 mps 694 mmHg 95%
    03:00 +19°C° 0.4 mm 0 mps 694 mmHg 95%
    04:00 +19°C° 0.4 mm 0 mps 694 mmHg 95%
    05:00 +19°C° 0.1 mm 0 mps 695 mmHg 95%
    06:00 +21°C° 0.1 mm 1 mps 695 mmHg 94%
    07:00 +22°C° 0.1 mm 1 mps 696 mmHg 94%
    08:00 +23°C° 0.1 mm 1 mps 696 mmHg 87%
    09:00 +25°C° 0.1 mm 1 mps 696 mmHg 79%
    10:00 +27°C° 0.1 mm 2 mps 696 mmHg 72%
    11:00 +28°C° 0.4 mm 2 mps 696 mmHg 69%
    12:00 +29°C° 0.4 mm 2 mps 695 mmHg 65%
    13:00 +30°C° 0.4 mm 2 mps 695 mmHg 62%
    14:00 +29°C° 1.4 mm 2 mps 695 mmHg 69%
    15:00 +28°C° 1.4 mm 1 mps 694 mmHg 77%
    16:00 +27°C° 1.4 mm 1 mps 694 mmHg 85%
    17:00 +25°C° 0.7 mm 1 mps 694 mmHg 87%
    18:00 +24°C° 0.7 mm 1 mps 694 mmHg 90%
    19:00 +23°C° 0.7 mm 1 mps 695 mmHg 92%
    20:00 +22°C° 0 mm 1 mps 695 mmHg 93%
    21:00 +22°C° 0 mm 1 mps 695 mmHg 93%
    22:00 +21°C° 0 mm 1 mps 695 mmHg 94%
    23:00 +21°C° 0 mm 1 mps 694 mmHg 94%
    Show more